Flag for U.S.A. Weather past 2 weeks in Fall River, Massachusetts, U.S.A.

Now
68 °F

Clear.


Feels Like: 68 °F
Forecast: 64 / 76 °F
Wind: 6 mph from South

Location: New Bedford Regional Airport

Current Time: Jun 30, 2015 at 10:34:06 PM

Latest Report: Jun 30, 2015 at 9:53 PM


Visibility: 10 mi

Pressure: 29.98 "Hg

Humidity: 87%

Dew point: 64 °F

Location of Fall RiverLocation

Historic Weather in Fall River — Graph

°F

Fall River temperature yesterday

Maximum temperature yesterday: 73 °F (at 3:53 PM)
Minimum temperature yesterday: 53 °F (at 1:53 AM)
Average temperature yesterday: 64 °F

Past Weeks' High & Low Weather Summary

 TemperatureHumidityPressure
High84 °F (Jun 22, 12:53 PM)100% (Jun 22, 12:53 AM)30.17 "Hg (Jun 22, 12:53 AM)
Low46 °F (Jun 18, 4:53 AM)30% (Jun 18, 12:53 PM)29.61 "Hg (Jun 21, 5:53 PM)
Average67 °F75%29.93 "Hg
* Reported Jun 15 8:53 PM — Jun 30 8:53 PM, Fall River, Weather by CustomWeather, © 2015

Note: Actual official high and low records may vary slightly from our data, if they occured in-between our weather recording intervals... More about our weather records

Advertising

Fall River weather history for previous 24 hours

 ConditionsComfort  
Time TempWeatherWind HumidityBarometerVisibility
8:53 PM
Tue, Jun 30
69 °FSunny.7 mph84%29.96 "Hg10 mi
7:53 PM71 °FSunny.8 mph78%29.95 "Hg10 mi
6:53 PM74 °FSunny.9 mph60%29.95 "Hg10 mi
5:53 PM77 °FSunny.13 mph48%29.95 "Hg10 mi
4:53 PM78 °FSunny.12 mph48%29.96 "Hg10 mi
3:53 PM80 °FSunny.14 mph47%29.96 "Hg10 mi
2:53 PM80 °FSunny.15 mph52%29.98 "Hg10 mi
1:53 PM80 °FSunny.20 mph51%29.98 "Hg10 mi
12:53 PM80 °FSunny.14 mph52%29.98 "Hg10 mi
11:53 AM80 °FSunny.10 mph51%29.98 "Hg10 mi
10:53 AM79 °FSunny.15 mph54%29.98 "Hg10 mi
9:53 AM76 °FSunny.10 mph62%29.98 "Hg10 mi
8:53 AM73 °FSunny.8 mph69%30.00 "Hg10 mi
7:53 AM68 °FSunny.5 mph87%30.00 "Hg10 mi
6:53 AM64 °FSunny.No wind90%29.98 "Hg10 mi
5:53 AM57 °FFog.No wind96%29.97 "Hg3 mi
4:53 AM57 °FPassing clouds.No wind96%29.97 "Hg10 mi
4:02 AM56 °FFog.No wind97%29.97 "Hg2 mi
3:53 AM57 °FFog.No wind96%29.97 "Hg2 mi
2:53 AM59 °FClear.No wind96%29.96 "Hg10 mi
1:53 AM61 °FClear.3 mph93%29.95 "Hg10 mi
12:53 AM62 °FClear.6 mph96%29.95 "Hg10 mi
11:53 PM
Mon, Jun 29
64 °FClear.8 mph90%29.94 "Hg10 mi
10:53 PM63 °FClear.3 mph90%29.93 "Hg10 mi
Weather by CustomWeather, © 2015

See weather overviewHow to use our weather pages